Time,TemperatureF,DewpointF,PressureIn,WindDirection,WindDirectionDegrees,WindSpeedMPH,WindSpeedGustMPH,Humidity,HourlyPrecipIn,Conditions,Clouds,dailyrainin,SoftwareType,DateUTC
2013-02-09 00:01:00,40.0,35.0,29.86,South,179,0.0,0.0,81,0.00,,,0.07,,2013-02-09 08:01:00,
2013-02-09 00:11:00,40.0,35.0,29.86,South,179,0.0,0.0,81,0.00,,,0.07,,2013-02-09 08:11:00,
2013-02-09 00:21:00,39.0,34.0,29.87,South,179,1.0,2.0,82,0.01,,,0.08,,2013-02-09 08:21:00,
2013-02-09 00:31:00,39.0,34.0,29.87,South,179,1.0,2.0,82,0.01,,,0.08,,2013-02-09 08:31:00,
2013-02-09 00:42:00,39.0,34.0,29.87,South,179,1.0,2.0,82,0.01,,,0.08,,2013-02-09 08:42:00,
2013-02-09 00:52:00,39.0,34.0,29.88,South,179,0.0,1.0,82,0.01,,,0.08,,2013-02-09 08:52:00,
2013-02-09 01:02:00,39.0,34.0,29.88,South,179,0.0,1.0,82,0.01,,,0.08,,2013-02-09 09:02:00,
2013-02-09 01:11:00,39.0,34.0,29.88,South,179,0.0,1.0,82,0.01,,,0.08,,2013-02-09 09:11:00,
2013-02-09 01:21:00,38.0,33.0,29.88,South,181,0.0,0.0,82,0.00,,,0.08,,2013-02-09 09:21:00,
2013-02-09 01:31:00,38.0,33.0,29.88,South,181,0.0,0.0,82,0.00,,,0.08,,2013-02-09 09:31:00,
2013-02-09 01:42:00,38.0,33.0,29.88,South,181,0.0,0.0,82,0.00,,,0.08,,2013-02-09 09:42:00,
2013-02-09 01:52:00,38.0,33.0,29.88,South,179,0.0,2.0,82,0.00,,,0.08,,2013-02-09 09:52:00,
2013-02-09 02:01:00,38.0,33.0,29.88,South,179,0.0,2.0,82,0.00,,,0.08,,2013-02-09 10:01:00,
2013-02-09 02:11:00,38.0,33.0,29.88,South,179,0.0,2.0,82,0.00,,,0.08,,2013-02-09 10:11:00,
2013-02-09 02:21:00,37.0,32.0,29.89,South,179,0.0,0.0,82,0.00,,,0.08,,2013-02-09 10:21:00,
2013-02-09 02:31:00,37.0,32.0,29.89,South,179,0.0,0.0,82,0.00,,,0.08,,2013-02-09 10:31:00,
2013-02-09 02:42:00,37.0,32.0,29.89,South,179,0.0,0.0,82,0.00,,,0.08,,2013-02-09 10:42:00,
2013-02-09 02:52:00,37.0,32.0,29.88,South,179,0.0,2.0,82,0.00,,,0.08,,2013-02-09 10:52:00,
2013-02-09 03:01:00,37.0,32.0,29.88,South,179,0.0,2.0,82,0.00,,,0.08,,2013-02-09 11:01:00,
2013-02-09 03:11:00,37.0,32.0,29.88,South,179,0.0,2.0,82,0.00,,,0.08,,2013-02-09 11:11:00,
2013-02-09 03:21:00,37.0,32.0,29.88,South,174,0.0,0.0,83,0.00,,,0.08,,2013-02-09 11:21:00,
2013-02-09 03:31:00,37.0,32.0,29.88,South,174,0.0,0.0,83,0.00,,,0.08,,2013-02-09 11:31:00,
2013-02-09 03:42:00,37.0,32.0,29.88,South,174,0.0,0.0,83,0.00,,,0.08,,2013-02-09 11:42:00,
2013-02-09 03:52:00,36.0,31.0,29.88,South,179,0.0,0.0,83,0.00,,,0.08,,2013-02-09 11:52:00,
2013-02-09 04:01:00,36.0,31.0,29.88,South,179,0.0,0.0,83,0.00,,,0.08,,2013-02-09 12:01:00,
2013-02-09 04:11:00,36.0,31.0,29.88,South,179,0.0,0.0,83,0.00,,,0.08,,2013-02-09 12:11:00,
2013-02-09 04:21:00,36.0,31.0,29.88,South,179,0.0,0.0,83,0.00,,,0.08,,2013-02-09 12:21:00,
2013-02-09 04:32:00,36.0,31.0,29.88,South,179,0.0,0.0,83,0.00,,,0.08,,2013-02-09 12:32:00,
2013-02-09 04:42:00,36.0,31.0,29.88,South,179,0.0,0.0,83,0.00,,,0.08,,2013-02-09 12:42:00,
2013-02-09 04:52:00,36.0,31.0,29.88,South,179,1.0,2.0,83,0.00,,,0.08,,2013-02-09 12:52:00,
2013-02-09 05:01:00,36.0,31.0,29.88,South,179,1.0,2.0,83,0.00,,,0.08,,2013-02-09 13:01:00,
2013-02-09 05:11:00,36.0,31.0,29.88,South,179,1.0,2.0,83,0.00,,,0.08,,2013-02-09 13:11:00,
2013-02-09 05:21:00,36.0,31.0,29.88,South,179,0.0,2.0,83,0.00,,,0.08,,2013-02-09 13:21:00,
2013-02-09 05:31:00,36.0,31.0,29.88,South,179,0.0,2.0,83,0.00,,,0.08,,2013-02-09 13:31:00,
2013-02-09 05:42:00,36.0,31.0,29.88,South,179,0.0,2.0,83,0.00,,,0.08,,2013-02-09 13:42:00,
2013-02-09 05:52:00,36.0,31.0,29.88,South,179,0.0,2.0,83,0.00,,,0.08,,2013-02-09 13:52:00,
2013-02-09 06:01:00,36.0,31.0,29.88,South,179,0.0,2.0,83,0.00,,,0.08,,2013-02-09 14:01:00,
2013-02-09 06:11:00,36.0,31.0,29.88,South,179,0.0,2.0,83,0.00,,,0.08,,2013-02-09 14:11:00,
2013-02-09 06:21:00,36.0,31.0,29.89,South,179,0.0,1.0,83,0.00,,,0.08,,2013-02-09 14:21:00,
2013-02-09 06:31:00,36.0,31.0,29.89,South,179,0.0,1.0,83,0.00,,,0.08,,2013-02-09 14:31:00,
2013-02-09 06:42:00,36.0,31.0,29.89,South,179,0.0,1.0,83,0.00,,,0.08,,2013-02-09 14:42:00,
2013-02-09 06:52:00,36.0,31.0,29.91,South,179,0.0,0.0,83,0.00,,,0.08,,2013-02-09 14:52:00,
2013-02-09 07:01:00,36.0,31.0,29.91,South,179,0.0,0.0,83,0.00,,,0.08,,2013-02-09 15:01:00,
2013-02-09 07:11:00,36.0,31.0,29.91,South,179,0.0,0.0,83,0.00,,,0.08,,2013-02-09 15:11:00,
2013-02-09 07:21:00,35.0,30.0,29.92,South,179,0.0,0.0,83,0.00,,,0.08,,2013-02-09 15:21:00,
2013-02-09 07:31:00,35.0,30.0,29.92,South,179,0.0,0.0,83,0.00,,,0.08,,2013-02-09 15:31:00,
2013-02-09 07:42:00,35.0,30.0,29.92,South,179,0.0,0.0,83,0.00,,,0.08,,2013-02-09 15:42:00,
2013-02-09 07:52:00,37.0,32.0,29.94,South,179,0.0,1.0,83,0.00,,,0.08,,2013-02-09 15:52:00,
2013-02-09 08:01:00,37.0,32.0,29.94,South,179,0.0,1.0,83,0.00,,,0.08,,2013-02-09 16:01:00,
2013-02-09 08:11:00,37.0,32.0,29.94,South,179,0.0,1.0,83,0.00,,,0.08,,2013-02-09 16:11:00,
2013-02-09 08:21:00,41.0,35.0,29.94,South,179,0.0,0.0,78,0.00,,,0.08,,2013-02-09 16:21:00,
2013-02-09 08:31:00,41.0,35.0,29.94,South,179,0.0,0.0,78,0.00,,,0.08,,2013-02-09 16:31:00,
2013-02-09 08:42:00,41.0,35.0,29.94,South,179,0.0,0.0,78,0.00,,,0.08,,2013-02-09 16:42:00,
2013-02-09 08:52:00,43.0,34.0,29.95,South,179,0.0,2.0,70,0.00,,,0.08,,2013-02-09 16:52:00,
2013-02-09 09:01:00,43.0,34.0,29.95,South,179,0.0,2.0,70,0.00,,,0.08,,2013-02-09 17:01:00,
2013-02-09 09:11:00,43.0,34.0,29.95,South,179,0.0,2.0,70,0.00,,,0.08,,2013-02-09 17:11:00,
2013-02-09 09:21:00,48.0,38.0,29.96,South,179,0.0,1.0,67,0.00,,,0.08,,2013-02-09 17:21:00,
2013-02-09 09:31:00,48.0,38.0,29.96,South,179,0.0,1.0,67,0.00,,,0.08,,2013-02-09 17:31:00,
2013-02-09 09:42:00,48.0,38.0,29.96,South,179,0.0,1.0,67,0.00,,,0.08,,2013-02-09 17:42:00,
2013-02-09 09:52:00,49.0,34.0,29.96,SE,128,0.0,3.0,56,0.00,,,0.08,,2013-02-09 17:52:00,
2013-02-09 10:01:00,49.0,34.0,29.96,SE,128,0.0,3.0,56,0.00,,,0.08,,2013-02-09 18:01:00,
2013-02-09 10:11:00,49.0,34.0,29.96,SE,128,0.0,3.0,56,0.00,,,0.08,,2013-02-09 18:11:00,
2013-02-09 10:22:00,53.0,35.0,29.97,NNW,336,1.0,3.0,50,0.00,,,0.08,,2013-02-09 18:22:00,
2013-02-09 10:31:00,53.0,35.0,29.97,NNW,336,1.0,3.0,50,0.00,,,0.08,,2013-02-09 18:31:00,
2013-02-09 10:42:00,53.0,35.0,29.97,NNW,336,1.0,3.0,50,0.00,,,0.08,,2013-02-09 18:42:00,
2013-02-09 10:52:00,55.0,33.0,29.98,North,8,1.0,3.0,43,0.00,,,0.08,,2013-02-09 18:52:00,
2013-02-09 11:01:00,55.0,33.0,29.98,North,8,1.0,3.0,43,0.00,,,0.08,,2013-02-09 19:01:00,
2013-02-09 11:11:00,55.0,33.0,29.98,North,8,1.0,3.0,43,0.00,,,0.08,,2013-02-09 19:11:00,
2013-02-09 11:21:00,56.0,31.0,29.97,NW,323,0.0,3.0,38,0.00,,,0.08,,2013-02-09 19:21:00,
2013-02-09 11:31:00,56.0,31.0,29.97,NW,323,0.0,3.0,38,0.00,,,0.08,,2013-02-09 19:31:00,
2013-02-09 11:42:00,56.0,31.0,29.97,NW,323,0.0,3.0,38,0.00,,,0.08,,2013-02-09 19:42:00,
2013-02-09 11:52:00,56.0,31.0,29.97,WSW,257,1.0,6.0,38,0.00,,,0.08,,2013-02-09 19:52:00,
2013-02-09 12:01:00,56.0,31.0,29.97,WSW,257,1.0,6.0,38,0.00,,,0.08,,2013-02-09 20:01:00,
2013-02-09 12:11:00,56.0,31.0,29.97,WSW,257,1.0,6.0,38,0.00,,,0.08,,2013-02-09 20:11:00,
2013-02-09 12:21:00,56.0,31.0,29.96,SSW,212,1.0,3.0,39,0.00,,,0.08,,2013-02-09 20:21:00,
2013-02-09 12:31:00,56.0,31.0,29.96,SSW,212,1.0,3.0,39,0.00,,,0.08,,2013-02-09 20:31:00,
2013-02-09 12:42:00,56.0,31.0,29.96,SSW,212,1.0,3.0,39,0.00,,,0.08,,2013-02-09 20:42:00,
2013-02-09 12:52:00,55.0,32.0,29.95,SSW,212,0.0,1.0,41,0.00,,,0.08,,2013-02-09 20:52:00,
2013-02-09 13:01:00,55.0,32.0,29.95,SSW,212,0.0,1.0,41,0.00,,,0.08,,2013-02-09 21:01:00,
2013-02-09 13:11:00,55.0,32.0,29.95,SSW,212,0.0,1.0,41,0.00,,,0.08,,2013-02-09 21:11:00,
2013-02-09 13:21:00,57.0,33.0,29.95,SW,216,1.0,6.0,40,0.00,,,0.08,,2013-02-09 21:21:00,
2013-02-09 13:31:00,57.0,33.0,29.95,SW,216,1.0,6.0,40,0.00,,,0.08,,2013-02-09 21:31:00,
2013-02-09 13:42:00,57.0,33.0,29.95,SW,216,1.0,6.0,40,0.00,,,0.08,,2013-02-09 21:42:00,
2013-02-09 13:52:00,58.0,32.0,29.94,NW,306,3.0,7.0,37,0.00,,,0.08,,2013-02-09 21:52:00,
2013-02-09 14:01:00,58.0,32.0,29.94,NW,306,3.0,7.0,37,0.00,,,0.08,,2013-02-09 22:01:00,
2013-02-09 14:11:00,58.0,32.0,29.94,NW,306,3.0,7.0,37,0.00,,,0.08,,2013-02-09 22:11:00,
2013-02-09 14:21:00,56.0,31.0,29.94,SSE,154,1.0,5.0,38,0.00,,,0.08,,2013-02-09 22:21:00,
2013-02-09 14:31:00,56.0,31.0,29.94,SSE,154,1.0,5.0,38,0.00,,,0.08,,2013-02-09 22:31:00,
2013-02-09 14:42:00,56.0,31.0,29.94,SSE,154,1.0,5.0,38,0.00,,,0.08,,2013-02-09 22:42:00,
2013-02-09 14:52:00,55.0,32.0,29.95,SSW,212,2.0,8.0,42,0.00,,,0.08,,2013-02-09 22:52:00,
2013-02-09 15:01:00,55.0,32.0,29.95,SSW,212,2.0,8.0,42,0.00,,,0.08,,2013-02-09 23:01:00,
2013-02-09 15:11:00,55.0,32.0,29.95,SSW,212,2.0,8.0,42,0.00,,,0.08,,2013-02-09 23:11:00,
2013-02-09 15:21:00,55.0,32.0,29.94,SSE,167,1.0,8.0,41,0.00,,,0.08,,2013-02-09 23:21:00,
2013-02-09 15:31:00,55.0,32.0,29.94,SSE,167,1.0,8.0,41,0.00,,,0.08,,2013-02-09 23:31:00,
2013-02-09 15:42:00,55.0,32.0,29.94,SSE,167,1.0,8.0,41,0.00,,,0.08,,2013-02-09 23:42:00,
2013-02-09 15:52:00,55.0,32.0,29.94,SSW,212,1.0,6.0,41,0.00,,,0.08,,2013-02-09 23:52:00,
2013-02-09 16:02:00,55.0,32.0,29.94,SSW,212,1.0,6.0,41,0.00,,,0.08,,2013-02-10 00:02:00,
2013-02-09 16:11:00,55.0,32.0,29.94,SSW,212,1.0,6.0,41,0.00,,,0.08,,2013-02-10 00:11:00,
2013-02-09 16:21:00,54.0,30.0,29.94,South,176,3.0,6.0,40,0.00,,,0.08,,2013-02-10 00:21:00,
2013-02-09 16:31:00,54.0,30.0,29.94,South,176,3.0,6.0,40,0.00,,,0.08,,2013-02-10 00:31:00,
2013-02-09 16:42:00,54.0,30.0,29.94,South,176,3.0,6.0,40,0.00,,,0.08,,2013-02-10 00:42:00,
2013-02-09 16:52:00,54.0,30.0,29.95,SSW,203,1.0,7.0,40,0.00,,,0.08,,2013-02-10 00:52:00,
2013-02-09 17:01:00,54.0,30.0,29.95,SSW,203,1.0,7.0,40,0.00,,,0.08,,2013-02-10 01:01:00,
2013-02-09 17:11:00,54.0,30.0,29.95,SSW,203,1.0,7.0,40,0.00,,,0.08,,2013-02-10 01:11:00,
2013-02-09 17:21:00,53.0,27.0,29.95,SSW,203,4.0,7.0,36,0.00,,,0.08,,2013-02-10 01:21:00,
2013-02-09 17:31:00,53.0,27.0,29.95,SSW,203,4.0,7.0,36,0.00,,,0.08,,2013-02-10 01:31:00,
2013-02-09 17:42:00,53.0,27.0,29.95,SSW,203,4.0,7.0,36,0.00,,,0.08,,2013-02-10 01:42:00,
2013-02-09 17:51:00,52.0,29.0,29.95,SSE,148,1.0,6.0,41,0.00,,,0.07,,2013-02-10 01:51:00,
2013-02-09 18:01:00,52.0,29.0,29.95,SSE,148,1.0,6.0,41,0.00,,,0.07,,2013-02-10 02:01:00,
2013-02-09 18:11:00,52.0,29.0,29.95,SSE,148,1.0,6.0,41,0.00,,,0.07,,2013-02-10 02:11:00,
2013-02-09 18:21:00,51.0,32.0,29.96,SW,217,1.0,6.0,48,0.00,,,0.07,,2013-02-10 02:21:00,
2013-02-09 18:31:00,51.0,32.0,29.96,SW,217,1.0,6.0,48,0.00,,,0.07,,2013-02-10 02:31:00,
2013-02-09 18:42:00,51.0,32.0,29.96,SW,217,1.0,6.0,48,0.00,,,0.07,,2013-02-10 02:42:00,
2013-02-09 18:52:00,50.0,32.0,29.96,SW,217,1.0,5.0,49,0.00,,,0.05,,2013-02-10 02:52:00,
2013-02-09 19:01:00,50.0,32.0,29.96,SW,217,1.0,5.0,49,0.00,,,0.05,,2013-02-10 03:01:00,
2013-02-09 19:11:00,50.0,32.0,29.96,SW,217,1.0,5.0,49,0.00,,,0.05,,2013-02-10 03:11:00,
2013-02-09 19:21:00,49.0,32.0,29.98,SW,217,0.0,3.0,51,0.00,,,0.05,,2013-02-10 03:21:00,
2013-02-09 19:31:00,49.0,32.0,29.98,SW,217,0.0,3.0,51,0.00,,,0.05,,2013-02-10 03:31:00,
2013-02-09 19:42:00,49.0,32.0,29.98,SW,217,0.0,3.0,51,0.00,,,0.05,,2013-02-10 03:42:00,
2013-02-09 19:52:00,49.0,33.0,29.98,SW,217,0.0,0.0,53,0.00,,,0.01,,2013-02-10 03:52:00,
2013-02-09 20:01:00,49.0,33.0,29.98,SW,217,0.0,0.0,53,0.00,,,0.01,,2013-02-10 04:01:00,
2013-02-09 20:11:00,49.0,33.0,29.98,SW,217,0.0,0.0,53,0.00,,,0.01,,2013-02-10 04:11:00,
2013-02-09 20:21:00,48.0,34.0,30.00,SW,217,0.0,2.0,57,0.00,,,0.01,,2013-02-10 04:21:00,
2013-02-09 20:31:00,48.0,34.0,30.00,SW,217,0.0,2.0,57,0.00,,,0.01,,2013-02-10 04:31:00,
2013-02-09 20:42:00,48.0,34.0,30.00,SW,217,0.0,2.0,57,0.00,,,0.01,,2013-02-10 04:42:00,
2013-02-09 20:52:00,47.0,34.0,30.00,SW,217,0.0,2.0,60,0.00,,,0.01,,2013-02-10 04:52:00,
2013-02-09 21:01:00,47.0,34.0,30.00,SW,217,0.0,2.0,60,0.00,,,0.01,,2013-02-10 05:01:00,
2013-02-09 21:11:00,47.0,34.0,30.00,SW,217,0.0,2.0,60,0.00,,,0.01,,2013-02-10 05:11:00,
2013-02-09 21:22:00,45.0,33.0,30.02,SW,217,0.0,1.0,62,0.00,,,0.01,,2013-02-10 05:22:00,
2013-02-09 21:31:00,45.0,33.0,30.02,SW,217,0.0,1.0,62,0.00,,,0.01,,2013-02-10 05:31:00,
2013-02-09 21:42:00,45.0,33.0,30.02,SW,217,0.0,1.0,62,0.00,,,0.01,,2013-02-10 05:42:00,
2013-02-09 21:52:00,45.0,34.0,30.01,SW,217,0.0,0.0,64,0.00,,,0.01,,2013-02-10 05:52:00,
2013-02-09 22:01:00,45.0,34.0,30.01,SW,217,0.0,0.0,64,0.00,,,0.01,,2013-02-10 06:01:00,
2013-02-09 22:11:00,45.0,34.0,30.01,SW,217,0.0,0.0,64,0.00,,,0.01,,2013-02-10 06:11:00,
2013-02-09 22:21:00,44.0,34.0,30.03,SW,217,0.0,0.0,67,0.00,,,0.01,,2013-02-10 06:21:00,
2013-02-09 22:31:00,44.0,34.0,30.03,SW,217,0.0,0.0,67,0.00,,,0.01,,2013-02-10 06:31:00,
2013-02-09 22:42:00,44.0,34.0,30.03,SW,217,0.0,0.0,67,0.00,,,0.01,,2013-02-10 06:42:00,
2013-02-09 22:52:00,43.0,34.0,30.02,SW,217,0.0,1.0,69,0.00,,,0.01,,2013-02-10 06:52:00,
2013-02-09 23:01:00,43.0,34.0,30.02,SW,217,0.0,1.0,69,0.00,,,0.01,,2013-02-10 07:01:00,
2013-02-09 23:11:00,43.0,34.0,30.02,SW,217,0.0,1.0,69,0.00,,,0.01,,2013-02-10 07:11:00,
2013-02-09 23:21:00,43.0,34.0,30.03,SW,217,0.0,0.0,71,0.00,,,0.01,,2013-02-10 07:21:00,
2013-02-09 23:31:00,43.0,34.0,30.03,SW,217,0.0,0.0,71,0.00,,,0.01,,2013-02-10 07:31:00,
2013-02-09 23:42:00,43.0,34.0,30.03,SW,217,0.0,0.0,71,0.00,,,0.01,,2013-02-10 07:42:00,
2013-02-09 23:52:00,42.0,34.0,30.03,SW,217,0.0,0.0,72,0.00,,,0.01,,2013-02-10 07:52:00,